Miscellaneous Local Product
Issued by NWS North Platte, NE

Home | Current Version | Previous Version | Text Only | Print | Product List | Glossary On
Versions: 1 2 3 4 5 6 7 8 9 10 11 12 13 14 15 16 17 18 19 20 21 22 23 24 25 26 27 28 29 30 31 32 33 34 35 36 37 38 39 40 41 42 43 44 45 46 47 48 49 50
000
AXUS43 KLBF 210910
MISLBF


WESTERN AND NORTH CENTRAL NEBRASKA HOURLY WEATHER ROUNDUP
NATIONAL WEATHER SERVICE NORTH PLATTE NE
400 AM CDT SAT OCT 21 2017

NOTE: "FAIR" INDICATES FEW OR NO CLOUDS BELOW 12,000 FEET WITH NO
SIGNIFICANT WEATHER AND/OR OBSTRUCTIONS TO VISIBILITY.

NOTE: STATIONS NOT REPORTING VARIABLES SUCH AS SKY/WEATHER OR
PRESSURE ARE PROVIDED BY RAWS AND APRS NETWORKS AND ARE NOT UNDER
NATIONAL WEATHER SERVICE QUALITY CONTROL.

...OBSERVATIONS IN AND NEAR THE EASTERN PANHANDLE OF NEBRASKA...

CITY           SKY/WX    TMP DP  RH WIND       PRES   REMARKS
PINE RIDGE     LGT RAIN  54  42  64 W10       29.57R
GORDON         FAIR      57  34  41 NW28G38   29.53S
CHADRON        CLOUDY    57  21  24 W24G32    29.61S
ALLIANCE       CLOUDY    54  29  38 NW22G36   29.58R
SIDNEY         CLOUDY    49  29  46 NW28G36   29.62R
$$

...OBSERVATIONS IN NORTHERN NEBRASKA AND FAR SOUTHERN SOUTH DAKOTA...

CITY           SKY/WX    TMP DP  RH WIND       PRES   REMARKS
WINNER         FAIR      63  56  78 SW15      29.43R
VALENTINE      CLOUDY    59  54  83 SW9       29.46S
THEDFORD       MOCLDY    57  55  91 W3        29.50F
AINSWORTH      PTCLDY    59  56  92 SW7       29.48F
O`NEILL        PTCLDY    64  60  86 S13G21    29.45F
ORD            CLEAR     66  59  78 S14       29.46F
BROKEN BOW     CLEAR     63  57  81 S9        29.45F
HALSEY           N/A     60  56  87 S9G16       N/A
BUTTE            N/A     63  58  83 SW13        N/A
CHAMBERS         N/A     63  60  88 S5          N/A
EWING            N/A     66  61  83 S8G20       N/A
$$

...OBSERVATIONS IN SOUTHWEST NEBRASKA AND FAR NORTHEAST COLORADO...

CITY           SKY/WX    TMP DP  RH WIND       PRES   REMARKS
HOLYOKE        FAIR      55  36  47 NW20G31   29.55R
IMPERIAL       PTCLDY    55  41  59 NW15      29.50R
OGALLALA       CLOUDY    59  41  52 NW18G24   29.51R
NORTH PLATTE   CLOUDY    62  55  77 SW6       29.46R
MCCOOK         CLOUDY    65  54  67 SW20G31   29.46S
LEXINGTON      CLEAR     65  57  76 S18       29.46F
STAPLETON        N/A     56  53  90 CALM        N/A
GOTHENBURG       N/A     65  54  68 S12         N/A
CALLAWAY         N/A     60  57  91 S15         N/A
$$

...OBSERVATIONS IN CENTRAL LINCOLN COUNTY AREA...

CITY           SKY/WX    TMP DP  RH WIND       PRES   REMARKS
N.P. AIRPORT   CLOUDY    62  55  77 SW6       29.46R
N.P. DOWNTOWN    N/A     60  55  83 CALM        N/A
N.P. SOUTHEAST   N/A     61  54  78 CALM        N/A
N.P. HILLCREST   N/A     60  55  83 W3          N/A
$$

...SOME OBSERVATIONS FROM AROUND THE REGION...

CITY           SKY/WX    TMP DP  RH WIND       PRES   REMARKS
DENVER         LGT RAIN  53  29  39 W12       29.66S
LIMON          CLOUDY    48  33  56 N22       29.64R
ASPEN          CLOUDY    32  29  88 W5        29.97S WCI  27
LARAMIE        CLOUDY    30  19  63 NW14      29.83R WCI  19
CASPER         CLOUDY    36  17  46 SW8       29.81R WCI  30
CHEYENNE       CLOUDY    41  17  38 W31G45    29.70R
SCOTTSBLUFF    CLOUDY    51  24  34 W17G26    29.67R
GRAND ISLAND   MOCLDY    69  62  78 S24G35    29.52F
OMAHA          CLOUDY    66  60  81 S21G32    29.63F
SIOUX FALLS    PTCLDY    66  59  78 S20G29    29.51F
PIERRE         PTCLDY    63  46  54 NW25      29.39S
RAPID CITY     CLOUDY    52  37  56 N24G35    29.56R
BISMARCK       CLEAR     56  34  43 W8        29.37R
KANSAS CITY    CLEAR     64  57  78 S26G33    29.80F
HILL CITY      CLOUDY    69  59  70 S25G41    29.52F
WICHITA        CLOUDY    68  64  87 S25G33    29.75S
DODGE CITY     CLEAR     64  58  80 S22       29.63F
OKLAHOMA CITY  MOCLDY    68  65  90 S16G26    29.81F
DALLAS         CLOUDY    74  68  81 S12       29.89S
AMARILLO       CLEAR     60  58  92 S23       29.76F
$$




USA.gov is the U.S. government's official web portal to all federal, state and local government web resources and services.